[[{"header":{"parameterUnit":"m.s-1","parameterCategory":1,"la1":30.2991,"la2":30.254,"lo1":-89.0895,"lo2":-89.0444,"dy":0.0017,"dx":0.0017,"nx":28,"ny":28,"refTime":"2024-06-06T09:00:00:Z","depth":0,"parameterNumber":2,"parameterNumberName":"U-component_of_WINDS"},"data":[0,0,0,0,0,0,0,0,0,0,0,0,0,0,0,0,0,0,0,0,0,0,0,0,0,0,0,0,0,0,0,0,0,0,0,0,0,0,0,0,0,0,0,0,0,0,0,0,0,0,0,0,0,0,0,0,0,0,2.0536,2.0537,0,2.0676,2.0678,2.0679,2.0706,2.0705,2.0704,2.0703,2.0849,2.0854,2.0859,0,0,0,0,0,0,0,0,0,0,0,0,0,2.0293,2.0298,2.0536,2.0538,2.0539,2.0676,2.0678,2.068,2.0707,2.0705,2.0704,2.0703,2.0848,2.0853,2.0859,0,0,0,0,0,0,0,0,0,0,0,0,0,2.0413,2.0299,2.0536,2.0569,2.0574,2.0675,2.0678,2.068,2.0707,2.0705,2.0704,2.0702,2.0846,2.0853,2.086,2.0939,0,0,2.0883,2.0886,0,0,0,0,0,0,0,0,2.0406,2.0421,2.0562,2.0567,2.0572,2.0672,2.0646,2.0767,2.0707,2.0656,2.0703,2.0701,2.0792,2.0803,2.0833,2.0946,2.0952,2.0883,2.0888,2.0891,2.0893,0,0,0,0,0,0,0,2.0397,2.0416,2.0591,2.0564,2.057,2.0578,2.0593,2.0669,2.0732,2.0661,2.0663,2.0679,2.0794,2.0826,2.0837,2.0954,2.0883,2.089,2.0894,2.0897,2.1138,2.114,0,0,0,0,0,0,2.0383,2.0409,2.0587,2.0596,2.0483,2.0584,2.06,2.0642,2.0731,2.0743,2.068,2.068,2.0814,2.0828,2.0842,2.094,2.0891,2.0898,2.0902,2.1136,2.1138,2.114,0,0,0,0,0,0,2.0378,2.0399,2.0581,2.0503,2.0527,2.0589,2.0636,2.0645,2.0677,2.0746,2.0757,2.0701,2.0814,2.0832,2.0914,2.0945,2.0901,2.0908,2.1134,2.1137,2.1139,2.1136,0,0,0,0,0,0,2.0371,2.0397,2.0427,2.0503,2.0531,2.065,2.0638,2.0649,2.069,2.069,2.0769,2.078,2.0814,2.0903,2.0922,2.0955,2.0914,2.1131,2.1135,2.1138,2.1133,2.1138,2.1142,0,0,0,0,0,2.0362,2.0421,2.0428,2.045,2.057,2.0652,2.0668,2.0705,2.0692,2.0723,2.0767,2.0778,2.0939,2.0911,2.0933,2.0968,2.1129,2.1134,2.1138,2.1131,2.1137,2.1142,0,0,0,0,0,0,2.0347,2.0431,2.044,2.0526,2.0581,2.0656,2.0697,2.071,2.0771,2.0769,2.0813,2.083,2.091,2.0948,2.0915,2.1049,2.1033,2.1042,2.1021,2.1027,2.1031,2.102,2.092,0,0,0,0,0,2.0354,2.0413,2.0484,2.0552,2.058,2.0633,2.0671,2.0694,2.0754,2.0778,2.0828,2.0886,2.095,2.0991,2.1053,2.1139,2.1156,2.1174,2.1178,2.1182,2.1189,2.1236,2.1244,2.1155,2.1155,2.1155,0,0,2.0368,2.0422,2.0457,2.0551,2.0597,2.0657,2.0653,2.0718,2.0763,2.0788,2.0868,2.0907,2.0975,2.1059,2.1099,2.1093,2.1217,2.1187,2.1189,2.1195,2.1241,2.125,2.1257,2.1158,2.1157,2.1157,0,0,2.0425,2.0472,2.0533,2.0579,2.0648,2.0684,2.0698,2.0772,2.0798,2.0879,2.0898,2.0954,2.1063,2.111,2.1148,2.1223,2.1234,2.1242,2.1265,2.1311,2.1318,2.1324,2.135,2.1358,2.1249,2.1249,2.1249,0,2.0434,2.0526,2.0564,2.0627,2.0668,2.0692,2.0755,2.0798,2.0884,2.0912,2.0904,2.1041,2.1089,2.1184,2.1201,2.1232,2.125,2.1233,2.1313,2.132,2.1327,2.1352,2.1361,2.1249,2.1249,2.1249,2.1249,0,2.0533,2.0597,2.0638,2.072,2.0766,2.0828,2.0876,2.0918,2.0937,2.0973,2.1056,2.1114,2.1188,2.1212,2.1233,2.131,2.1304,2.1305,2.129,2.1335,2.1359,2.1369,2.125,2.125,2.125,2.125,0,0,2.0584,2.0686,2.07,2.0737,2.0815,2.0865,2.0929,2.1001,2.1035,2.1094,2.1149,2.124,2.1241,2.1284,2.131,2.135,2.1404,2.1346,2.1348,2.1353,2.1492,2.149,2.1501,2.1413,2.1415,2.1416,2.1486,0,2.0649,2.0763,2.0799,2.0895,2.0953,2.0977,2.1033,2.1087,2.1123,2.1178,2.1218,2.1282,2.1278,2.1304,2.1345,2.1389,2.1432,2.1385,2.1464,2.1466,2.1444,2.1513,2.1512,2.1575,2.1496,2.1497,2.1498,0,2.0741,2.08,2.09,2.097,2.0996,2.1046,2.1114,2.1167,2.1229,2.1252,2.13,2.1322,2.139,2.1372,2.1467,2.1433,2.1468,2.1494,2.1498,2.1506,2.1484,2.1522,2.1596,2.1604,2.1514,2.1513,2.1512,0,2.0766,2.0871,2.0945,2.0976,2.1059,2.1093,2.113,2.119,2.1231,2.1291,2.1318,2.1385,2.1422,2.1474,2.1514,2.1498,2.1605,2.159,2.1625,2.1624,2.1646,2.1644,2.1725,2.167,2.167,2.167,2.167,0,2.0834,2.0894,2.0957,2.1002,2.107,2.1111,2.1178,2.1216,2.127,2.1323,2.1349,2.1398,2.1449,2.1506,2.1538,2.161,2.1627,2.1648,2.1655,2.1645,2.1642,2.1667,2.1663,2.1673,2.1672,2.1671,2.1671,0,2.0873,2.0917,2.0999,2.1071,2.1091,2.1138,2.1201,2.1245,2.1282,2.1349,2.1367,2.1425,2.1493,2.1538,2.1625,2.1647,2.1725,2.1733,2.1704,2.1707,2.1739,2.1735,2.1838,2.1854,2.179,2.179,2.1791,0,2.0913,2.0959,2.1037,2.1074,2.111,2.117,2.1211,2.1254,2.1296,2.137,2.1406,2.1475,2.1532,2.1639,2.1689,2.1756,2.1764,2.1796,2.1774,2.1762,2.1763,2.1759,2.1764,2.1799,2.1799,2.18,2.18,0,2.0978,2.0998,2.1056,2.1121,2.117,2.1224,2.1278,2.1307,2.1359,2.1405,2.1474,2.1519,2.1607,2.1675,2.1746,2.1784,2.1801,2.1806,2.1818,2.1807,2.1787,2.1797,2.1711,2.1804,2.1803,2.1803,2.1803,2.1803,2.1018,2.106,2.1121,2.1185,2.123,2.128,2.1325,2.1367,2.1425,2.15,2.1522,2.1593,2.1654,2.1751,2.1791,2.1848,2.1845,2.1861,2.1866,2.1869,2.1868,2.1779,2.1861,2.1861,2.1861,2.1861,2.1861,0,2.1083,2.1124,2.1182,2.1257,2.1307,2.1318,2.1378,2.1419,2.1482,2.1537,2.1592,2.1671,2.1738,2.1793,2.1861,2.1896,2.1905,2.1912,2.191,2.1918,2.1867,2.185,2.1904,2.1904,2.1904,2.1904,2.1904,2.1904,2.1123,2.1195,2.1222,2.1317,2.1357,2.1426,2.146,2.1506,2.155,2.1637,2.1692,2.1727,2.1782,2.1855,2.1916,2.1931,2.1954,2.1959,2.1975,2.1927,2.1922,2.1917,2.1901,2.1965,2.1965,2.2022,2.2022,2.2022]},{"header":{"parameterUnit":"m.s-1","parameterCategory":1,"la1":30.2991,"la2":30.254,"lo1":-89.0895,"lo2":-89.0444,"dy":0.0017,"dx":0.0017,"nx":28,"ny":28,"refTime":"2024-06-06T09:00:00:Z","depth":0,"parameterNumber":3,"parameterNumberName":"V-component_of_WINDS"},"data":[0,0,0,0,0,0,0,0,0,0,0,0,0,0,0,0,0,0,0,0,0,0,0,0,0,0,0,0,0,0,0,0,0,0,0,0,0,0,0,0,0,0,0,0,0,0,0,0,0,0,0,0,0,0,0,0,0,0,3.1255,3.1254,0,3.1214,3.1214,3.1213,3.1181,3.1181,3.1181,3.1181,3.1134,3.1133,3.1132,0,0,0,0,0,0,0,0,0,0,0,0,0,3.1302,3.1301,3.1255,3.1254,3.1254,3.1214,3.1214,3.1213,3.1181,3.1181,3.1181,3.118,3.1135,3.1133,3.1132,0,0,0,0,0,0,0,0,0,0,0,0,0,3.1273,3.1301,3.1255,3.1233,3.1231,3.1214,3.1213,3.1213,3.1182,3.1181,3.1181,3.118,3.1135,3.1134,3.1132,3.1132,0,0,3.1128,3.1127,0,0,0,0,0,0,0,0,3.1275,3.1271,3.1237,3.1235,3.1232,3.1202,3.1213,3.1186,3.1182,3.12,3.1181,3.118,3.1157,3.1154,3.1147,3.113,3.1128,3.1128,3.1127,3.1126,3.1126,0,0,0,0,0,0,0,3.1277,3.1273,3.1239,3.1237,3.1234,3.1225,3.122,3.1208,3.1181,3.1199,3.1196,3.1192,3.1156,3.1148,3.1146,3.1127,3.1128,3.1126,3.1125,3.1125,3.1107,3.1107,0,0,0,0,0,0,3.1283,3.1275,3.124,3.1237,3.1253,3.1224,3.1219,3.1212,3.1182,3.1176,3.1192,3.1191,3.1151,3.1147,3.1144,3.1141,3.1126,3.1125,3.1124,3.1107,3.1107,3.1108,0,0,0,0,0,0,3.1284,3.128,3.1242,3.1256,3.125,3.1224,3.1217,3.1212,3.1205,3.1177,3.1172,3.119,3.1151,3.1146,3.1135,3.1139,3.1124,3.1123,3.1106,3.1107,3.1107,3.1136,0,0,0,0,0,0,3.1285,3.1281,3.1281,3.1256,3.1249,3.1235,3.1217,3.1211,3.1203,3.12,3.1173,3.1168,3.115,3.1138,3.1134,3.1137,3.1122,3.1106,3.1106,3.1107,3.1135,3.1138,3.114,0,0,0,0,0,3.1287,3.129,3.1281,3.1277,3.125,3.1235,3.1231,3.1211,3.1203,3.1203,3.1185,3.1169,3.114,3.1137,3.1132,3.1135,3.1105,3.1106,3.1107,3.1133,3.1137,3.114,0,0,0,0,0,0,3.1315,3.1286,3.1276,3.1271,3.1256,3.123,3.1229,3.1216,3.1201,3.1199,3.1174,3.1168,3.116,3.1146,3.1144,3.1133,3.112,3.112,3.1142,3.1145,3.1148,3.1151,3.1121,0,0,0,0,0,3.1321,3.1313,3.1288,3.1286,3.1279,3.1255,3.1248,3.1234,3.1217,3.121,3.1191,3.1174,3.116,3.1152,3.1138,3.1133,3.1126,3.1132,3.1135,3.1137,3.1137,3.1133,3.1135,3.111,3.111,3.111,0,0,3.1332,3.1315,3.1312,3.1291,3.1277,3.1268,3.125,3.1241,3.1234,3.1208,3.1197,3.1183,3.1162,3.1154,3.1149,3.1142,3.1143,3.1138,3.1141,3.1139,3.1134,3.1136,3.1138,3.1111,3.1111,3.1111,0,0,3.1348,3.1335,3.1332,3.1319,3.13,3.1284,3.1284,3.126,3.125,3.1239,3.1219,3.1209,3.1187,3.1173,3.1162,3.1174,3.1158,3.117,3.1183,3.1179,3.1181,3.1183,3.1186,3.1188,3.117,3.117,3.117,0,3.1364,3.1351,3.1332,3.1324,3.1315,3.1293,3.1289,3.1277,3.1253,3.1247,3.124,3.1212,3.1196,3.1184,3.1187,3.1179,3.1177,3.1172,3.1183,3.1184,3.1185,3.1188,3.1189,3.1172,3.1171,3.1171,3.1171,0,3.1372,3.1363,3.1363,3.1342,3.1333,3.1327,3.1305,3.1298,3.1285,3.127,3.1259,3.1239,3.1221,3.1217,3.1204,3.1203,3.1199,3.1188,3.1175,3.119,3.1192,3.1193,3.1174,3.1173,3.1173,3.1172,0,0,3.1403,3.1373,3.1373,3.1363,3.134,3.1332,3.1325,3.1309,3.1303,3.1288,3.128,3.1262,3.1252,3.124,3.1225,3.1221,3.123,3.121,3.1209,3.1214,3.1228,3.1236,3.1238,3.122,3.1221,3.1221,3.1229,0,3.1415,3.1403,3.1385,3.1378,3.1369,3.1348,3.1341,3.1326,3.1312,3.1301,3.1285,3.1272,3.126,3.1253,3.1248,3.123,3.1233,3.1229,3.1212,3.1211,3.1217,3.1239,3.1247,3.1256,3.123,3.123,3.123,0,3.1427,3.1414,3.1407,3.1385,3.138,3.1375,3.1359,3.1349,3.1331,3.1321,3.1309,3.1292,3.1282,3.1271,3.1256,3.1255,3.1246,3.1236,3.1236,3.1233,3.1221,3.1235,3.1259,3.126,3.1231,3.1231,3.1231,0,3.145,3.1431,3.1424,3.1416,3.139,3.1387,3.1376,3.1358,3.1349,3.1334,3.1328,3.1312,3.1302,3.1289,3.1269,3.1263,3.1256,3.1243,3.1246,3.1246,3.1245,3.1245,3.1266,3.1241,3.1241,3.1241,3.1241,0,3.1464,3.146,3.1434,3.1429,3.1424,3.1403,3.1398,3.1385,3.1368,3.136,3.134,3.1333,3.1306,3.1295,3.1278,3.1268,3.1264,3.1255,3.125,3.1256,3.1257,3.125,3.1248,3.1241,3.1241,3.1241,3.1241,0,3.1488,3.1471,3.1462,3.1439,3.1433,3.143,3.1409,3.1403,3.1389,3.1378,3.1374,3.1351,3.1336,3.1315,3.1293,3.1282,3.1275,3.1268,3.1281,3.1278,3.1282,3.1282,3.1299,3.13,3.1275,3.1275,3.1275,0,3.1498,3.1495,3.1472,3.1466,3.1456,3.1446,3.1438,3.1417,3.1409,3.1388,3.1384,3.1369,3.1356,3.1334,3.1313,3.1297,3.1289,3.1296,3.1286,3.1292,3.1288,3.1288,3.1287,3.1298,3.1298,3.1299,3.1299,0,3.1518,3.1509,3.1499,3.1485,3.1476,3.1464,3.145,3.1446,3.1422,3.1413,3.14,3.1389,3.1369,3.1353,3.1334,3.1321,3.1305,3.1302,3.1302,3.1307,3.1315,3.131,3.1287,3.1302,3.1302,3.1301,3.1301,3.1301,3.1535,3.1531,3.1514,3.1503,3.1491,3.1479,3.1473,3.1458,3.1446,3.1429,3.1417,3.1404,3.1385,3.1358,3.1346,3.1334,3.1327,3.1327,3.1327,3.1327,3.1329,3.1318,3.133,3.133,3.133,3.133,3.133,0,3.1552,3.1541,3.1531,3.1514,3.1505,3.1493,3.1478,3.147,3.146,3.1444,3.1432,3.1416,3.1401,3.138,3.1363,3.1357,3.135,3.1354,3.1353,3.135,3.1336,3.1338,3.136,3.136,3.136,3.136,3.136,3.136,3.156,3.1553,3.1543,3.1529,3.1517,3.1506,3.1498,3.1486,3.1474,3.1457,3.1446,3.1433,3.1415,3.1396,3.1382,3.1376,3.137,3.1376,3.1368,3.1354,3.1351,3.1349,3.135,3.1375,3.1375,3.1383,3.1383,3.1383]}]]